Location: Street
(51.1247°N, 2.7429°W)
Time: 16:07:42
(UTC+00:00)

Vanguard 2 Rocket - Visible Passes

Search period start: 24 November 2020 00:00
Search period end: 04 December 2020 00:00
Orbit: 554 x 3326 km, 32.9° (Epoch: 24 November)

Date Brightness Start Highest point End Pass type
(mag) Time Alt. Az. Time Alt. Az. Time Alt. Az.
24 Nov 11.6 07:01:40 10° S 07:11:44 16° SE 07:20:40 10° ESE visible
25 Nov 11.7 06:05:51 10° SSE 06:11:11 12° SE 06:16:19 10° ESE visible
26 Nov 11.4 07:11:03 10° S 07:24:35 23° SSE 07:36:19 10° ESE visible
27 Nov 11.4 06:12:34 10° S 06:23:51 18° SE 06:34:20 10° ESE visible
28 Nov 11.5 05:16:26 10° SSE 05:23:19 13° SE 05:30:05 10° ESE visible
29 Nov 11.2 06:22:28 10° SSW 06:36:30 25° SSE 06:49:36 10° ESE visible
30 Nov 11.2 05:24:13 10° S 05:35:46 19° SE 05:47:14 10° ESE visible
01 Dec 11.3 04:28:12 10° SSE 04:35:20 13° SE 04:42:40 10° ESE visible
01 Dec 11.0 06:33:37 10° SSW 06:49:12 31° SSE 07:03:59 10° E visible
02 Dec 11.0 05:34:31 10° S 05:48:17 25° SE 06:02:17 10° E visible
03 Dec 11.0 04:36:34 10° S 04:47:39 19° SE 04:59:27 10° E visible
03 Dec 10.9 06:45:32 10° SW 07:01:58 36° SSE 07:17:53 10° ESE visible
